Location: Macksville High School
(37.9611°N, 99.9654°W)
Time: 19:59:07
(UTC+00:00)

Cosmos 1726 - Pass Details

Date: 17 January 2021
Orbit: 480 x 498 km, 82.5° (Epoch: 26 February)

Event Time Altitude Azimuth Distance (km) Brightness Sun altitude
Rises 12:14:10 0° 189° (S) 2,555 5.8 -19.4°
Reaches altitude 10° 12:16:15 10° 191° (S) 1,681 4.8 -19.0°
Maximum altitude 12:19:56 77° 277° (W) 512 1.9 -18.3°
Drops below altitude 10° 12:23:40 10° 4° (N) 1,705 4.7 -17.6°
Sets 12:25:48 0° 6° (N) 2,595 5.7 -17.1°
